Grass Valley, CA

11:08 AM PST on December 06, 2019 (GMT -0800)
Grass Valley

Weather History for KGOO - October, 2019

Change the Weather History Date:

Sunday, October 27, 2019

  Actual Average (KAUN) Record (KAUN)
Temperature  
Mean Temperature 50 °F -  
Max Temperature 57 °F 70 °F 87 °F (1965)
Min Temperature 44 °F 48 °F 35 °F (2004)
Degree Days  
Heating Degree Days 14    
Moisture  
Dew Point 8 °F    
Average Humidity 17    
Maximum Humidity 23    
Minimum Humidity 13    
Precipitation  
Precipitation 0.00 in - - ()
Sea Level Pressure  
Sea Level Pressure 29.93 in    
Wind  
Wind Speed 16 mph ()    
Max Wind Speed 24 mph    
Max Gust Speed 41 mph    
Visibility 10.0 miles    
Events      
Averages and records for this station are not official NWS values.
T = Trace of Precipitation, MM = Missing Value Source: Averaged Metar Reports

Daily Weather History Graph

Daily Weather History Graph

Search for Another Location

Airport or City:

Astronomy

Oct. 27, 2019 Rise Set
Actual Time 7:26 AM PDT 6:08 PM PDT
Civil Twilight 6:58 AM PDT 6:36 PM PDT
Nautical Twilight 6:27 AM PDT 7:07 PM PDT
Astronomical Twilight 5:56 AM PDT 7:38 PM PDT
Moon 6:41 AM PDT (10/27) 6:21 PM PDT (10/27)
Length of Visible Light 11h 37m
Length of Day
10h 42m
Waning Crescent, 0% of the Moon is Illuminated
Oct 27
Waning Crescent
Oct 27
New
Nov 4
First Quarter
Nov 12
Full
Nov 19
Last Quarter

Hourly Weather History & Observations

Time (PDT) Temp. Windchill Dew Point Humidity Pressure Visibility Wind Dir Wind Speed Gust Speed Precip Events Conditions
7:55 AM 44.6 °F 36.1 °F 8.6 °F 23% 29.84 in 10.0 mi ENE 21.9 mph 34.5 mph N/A   Unknown
8:15 AM 44.6 °F 36.9 °F 8.6 °F 23% 29.85 in 10.0 mi East 18.4 mph 38.0 mph N/A   Unknown
8:30 AM 44.6 °F 35.9 °F 8.6 °F 23% 29.85 in 10.0 mi East 23.0 mph 34.5 mph N/A   Unknown
8:55 AM 46.4 °F 39.0 °F 6.8 °F 20% 29.89 in 10.0 mi ENE 19.6 mph 29.9 mph N/A   Unknown
9:15 AM 46.4 °F 40.1 °F 5.0 °F 18% 29.90 in 10.0 mi ENE 15.0 mph 28.8 mph N/A   Unknown
9:35 AM 48.2 °F - 5.0 °F 17% 29.91 in 10.0 mi ENE 21.9 mph 34.5 mph N/A   Unknown
9:55 AM 48.2 °F - 6.8 °F 19% 29.92 in 10.0 mi ENE 15.0 mph 23.0 mph N/A   Unknown
10:15 AM 50.0 °F - 6.8 °F 17% 29.91 in 10.0 mi ENE 21.9 mph 41.4 mph N/A   Unknown
10:35 AM 50.0 °F - 6.8 °F 17% 29.92 in 10.0 mi ENE 23.0 mph 35.7 mph N/A   Unknown
10:50 AM 50.0 °F - 6.8 °F 17% 29.93 in 10.0 mi ENE 19.6 mph 31.1 mph N/A   Unknown
11:15 AM 51.8 °F - 8.6 °F 18% 29.94 in 10.0 mi ENE 15.0 mph 25.3 mph N/A   Unknown
11:35 AM 51.8 °F - 8.6 °F 18% 29.95 in 10.0 mi ENE 17.3 mph 27.6 mph N/A   Unknown
11:55 AM 51.8 °F - 10.4 °F 19% 29.95 in 10.0 mi East 13.8 mph 29.9 mph N/A   Unknown
12:15 PM 51.8 °F - 12.2 °F 21% 29.96 in 10.0 mi East 20.7 mph 32.2 mph N/A   Unknown
12:35 PM 53.6 °F - 8.6 °F 16% 29.95 in 10.0 mi ENE 17.3 mph 24.2 mph N/A   Unknown
12:55 PM 53.6 °F - 8.6 °F 16% 29.96 in 10.0 mi ENE 24.2 mph 36.8 mph N/A   Unknown
1:10 PM 53.6 °F - 8.6 °F 16% 29.95 in 10.0 mi ENE 11.5 mph 32.2 mph N/A   Unknown
1:35 PM 53.6 °F - 6.8 °F 15% 29.95 in 10.0 mi NE 19.6 mph 35.7 mph N/A   Unknown
1:55 PM 55.4 °F - 6.8 °F 14% 29.95 in 10.0 mi ENE 13.8 mph 34.5 mph N/A   Unknown
2:15 PM 55.4 °F - 8.6 °F 15% 29.94 in 10.0 mi ENE 17.3 mph 29.9 mph N/A   Unknown
2:35 PM 55.4 °F - 8.6 °F 15% 29.95 in 10.0 mi ENE 17.3 mph 25.3 mph N/A   Unknown
2:50 PM 55.4 °F - 10.4 °F 17% 29.95 in 10.0 mi East 12.7 mph 25.3 mph N/A   Unknown
3:15 PM 55.4 °F - 6.8 °F 14% 29.96 in 10.0 mi East 12.7 mph 28.8 mph N/A   Unknown
3:35 PM 55.4 °F - 6.8 °F 14% 29.96 in 10.0 mi ENE 9.2 mph 20.7 mph N/A   Unknown
3:55 PM 57.2 °F - 6.8 °F 13% 29.96 in 10.0 mi Variable 6.9 mph 17.3 mph N/A   Unknown
4:10 PM 55.4 °F - 5.0 °F 13% 29.97 in 10.0 mi ENE 8.1 mph 16.1 mph N/A   Unknown
4:35 PM 55.4 °F - 6.8 °F 14% 29.97 in 10.0 mi East 6.9 mph 13.8 mph N/A   Unknown
4:40 PM 55.4 °F - 6.8 °F 14% 29.97 in 10.0 mi East 12.7 mph - N/A   Unknown